Weather observations for the past three days for
Dallas/Fort Worth International Airport
Metric (Imperial)
Date Time (cdt) Wind (kph) Vis. (km) Weather Sky Cond. Temperature (ºC) Relative Humidity Wind Chill (°C) Heat Index (°C) Pressure Precipitation (cm)
Air Dwpt 6 hour altimeter (cm) sea level (mb) 1 hr 3 hr 6 hr
Max. Min.
21 11:53 SE 13 16.09 Partly Cloudy SCT036 SCT250 31.7 21.1 53% 35 76.61 1020.4
21 10:53 SE 11 16.09 Partly Cloudy SCT035 SCT250 30 21.1 59% 33 76.63 1020.6
21 09:53 Vrbl 6 16.09 Partly Cloudy FEW030 SCT250 28.9 21.7 65% 32 76.63 1020.7
21 08:53 S 11 16.09 Partly Cloudy SCT250 27.2 22.2 74% 30 76.63 1020.7
21 07:53 SE 7 16.09 Mostly Cloudy BKN250 26.1 22.2 79% 28 76.61 1020.2
21 06:53 SE 9 16.09 Partly Cloudy FEW050 SCT250 25 22.2 27.8 24.4 85% 26 76.56 1019.7
21 05:53 SE 11 16.09 Mostly Cloudy FEW050 BKN250 25 21.7 82% 26 76.53 1019.3
21 04:53 SE 9 16.09 Mostly Cloudy FEW050 BKN250 25.6 21.7 79% 27 76.53 1019.2
21 03:53 SE 17 16.09 Mostly Cloudy FEW050 BKN250 26.7 21.7 74% 29 76.5 1019.0
21 02:53 SE 17 16.09 Mostly Cloudy FEW044 SCT060 BKN250 27.8 21.7 69% 30 76.5 1019.1
21 01:53 SE 9 16.09 Mostly Cloudy FEW050 BKN250 26.7 21.7 74% 29 76.53 1019.5
21 00:53 SE 11 16.09 A Few Clouds FEW150 FEW250 27.2 21.7 32.8 27.2 72% 29 76.53 1019.4
20 23:53 SE 9 16.09 A Few Clouds FEW050 FEW250 27.8 21.7 69% 30 76.53 1019.5
20 22:53 SE 13 16.09 Partly Cloudy SCT250 28.9 21.1 63% 31 76.5 1019.1
20 21:53 E 17 16.09 Mostly Cloudy FEW160 BKN250 29.4 21.1 61% 32 76.45 1018.4
20 20:53 SE 13 16.09 Mostly Cloudy FEW055 FEW160 BKN250 29.4 20.6 59% 32 76.43 1017.8
20 19:53 SE 19 16.09 Mostly Cloudy FEW055 FEW200 BKN250 31.1 20 52% 33 76.4 1017.6
20 18:53 E 20 16.09 Mostly Cloudy FEW055 FEW200 BKN250 32.8 20 33.9 30.6 47% 35 76.4 1017.8
20 17:53 E 15 16.09 Mostly Cloudy FEW055 BKN250 33.3 20 46% 36 76.4 1017.7
20 16:53 E 19 16.09 Mostly Cloudy SCT045 BKN250 33.3 20.6 47% 36 76.48 1018.5
20 15:53 E 19 16.09 Mostly Cloudy SCT045 SCT085 BKN250 32.8 20 47% 35 76.53 1019.2
20 14:53 E 15 16.09 Mostly Cloudy SCT044 BKN090 BKN250 32.2 21.1 52% 35 76.56 1019.8
20 13:53 E 11 16.09 Mostly Cloudy SCT044 BKN250 32.2 21.1 52% 35 76.61 1020.3
20 12:53 Vrbl 11 16.09 Mostly Cloudy SCT035 BKN250 30.6 21.1 31.7 25.6 57% 33 76.63 1020.6
20 11:53 SE 15 16.09 Mostly Cloudy SCT026 SCT075 BKN250 29.4 22.2 65% 33 76.66 1021.1
20 10:53 E 15 16.09 Mostly Cloudy SCT022 BKN200 BKN250 28.3 22.2 70% 31 76.66 1021.1
20 09:53 SE 15 16.09 Mostly Cloudy SCT021 BKN200 BKN250 28.3 22.8 72% 32 76.66 1020.9
20 08:53 SE 19 16.09 Mostly Cloudy BKN018 BKN200 BKN250 26.1 22.2 79% 28 76.61 1020.6
20 07:53 E 17 16.09 Mostly Cloudy BKN017 BKN200 BKN250 26.1 22.8 82% 28 76.53 1019.3
20 06:53 E 15 16.09 Mostly Cloudy SCT017 SCT200 BKN250 25.6 22.8 27.2 25.6 85% 27 76.48 1018.7
20 05:53 E 15 16.09 Mostly Cloudy BKN017 BKN250 25.6 22.8 85% 27 76.45 1018.2
20 04:53 E 11 16.09 Mostly Cloudy SCT018 BKN250 26.1 22.8 82% 28 76.43 1017.9
20 03:53 E 13 16.09 Mostly Cloudy FEW020 SCT180 BKN250 26.1 22.2 79% 28 76.4 1017.6
20 02:53 E 11 16.09 Overcast FEW020 SCT150 OVC250 26.7 22.2 76% 29 76.4 1017.7
20 01:53 E 13 16.09 Mostly Cloudy BKN160 BKN220 26.7 21.7 74% 29 76.43 1018.1
20 00:53 E 13 G 30 16.09 Overcast FEW100 BKN160 OVC250 27.2 21.7 29.4 27.2 72% 29 76.45 1018.4
19 23:53 E 13 16.09 Overcast FEW060 BKN130 OVC250 27.8 21.1 67% 30 76.48 1018.7
19 22:53 E 11 16.09 Mostly Cloudy BKN130 BKN180 BKN250 27.8 20.6 65% 30 76.45 1018.4
19 21:53 E 17 16.09 Mostly Cloudy SCT130 BKN180 BKN250 28.3 20 61% 30 76.4 1017.6
19 20:53 E 13 16.09 Mostly Cloudy BKN150 BKN190 BKN250 28.3 20 61% 30 76.35 1017.1
19 19:53 E 13 16.09 Mostly Cloudy FEW044 BKN140 BKN170 BKN250 28.9 18.9 55% 30 76.35 1016.9
19 18:53 E 17 16.09 Mostly Cloudy FEW045 BKN140 BKN250 29.4 18.9 31.1 29.4 53% 31 76.33 1016.7
19 17:53 E 15 16.09 Mostly Cloudy FEW044 SCT100 BKN170 BKN250 29.4 17.8 50% 30 76.33 1016.7
19 16:53 E 22 G 35 16.09 Mostly Cloudy SCT044 BKN100 BKN140 BKN250 29.4 20 57% 31 76.33 1016.6
19 15:53 E 13 G 28 16.09 Mostly Cloudy SCT044 BKN100 BKN250 30.6 20.6 55% 33 76.33 1016.6
19 14:53 E 19 G 35 16.09 Mostly Cloudy SCT042 BKN130 31.1 20.6 54% 34 76.33 1016.7
19 13:53 E 15 16.09 Mostly Cloudy SCT035 BKN160 30.6 21.1 57% 33 76.35 1017.1
19 12:53 E 13 16.09 Mostly Cloudy BKN035 BKN090 29.4 21.1 29.4 23.9 61% 32 76.4 1017.7
19 11:53 E 17 G 31 16.09 Overcast SCT028 BKN035 OVC085 28.3 21.1 65% 31 76.4 1017.7
19 10:53 NE 15 16.09 Overcast SCT027 BKN034 OVC090 27.8 21.1 67% 30 76.38 1017.2
19 09:53 NE 17 16.09 Mostly Cloudy SCT021 BKN032 BKN100 26.7 21.7 74% 29 76.38 1017.2
19 08:53 E 13 16.09 Mostly Cloudy BKN018 BKN024 26.1 22.2 79% 28 76.35 1017.0
19 07:53 E 11 16.09 Partly Cloudy SCT015 SCT023 25 21.7 82% 26 76.28 1016.1
19 06:53 E 9 16.09 Partly Cloudy FEW017 SCT026 23.9 21.1 26.7 23.3 84% 24 76.2 1014.9
19 05:53 E 11 16.09 A Few Clouds FEW017 23.9 21.1 84% 24 76.12 1013.9
19 04:53 SE 13 16.09 A Few Clouds FEW020 23.9 20 79% 24 76.07 1013.4
19 03:53 E 9 16.09 Fair CLR 23.9 20.6 82% 24 76.07 1013.1
19 02:53 SE 7 16.09 A Few Clouds FEW025 24.4 21.1 82% 25 76.05 1012.9
19 01:53 SE 13 16.09 A Few Clouds FEW026 25.6 21.1 76% 27 76.05 1012.8
19 00:53 S 19 16.09 Mostly Cloudy BKN028 BKN035 26.7 21.1 32.2 26.7 71% 28 76.02 1012.6
18 23:53 S 30 G 43 16.09 Mostly Cloudy BKN030 BKN036 27.8 21.7 69% 30 76 1012.1
18 22:53 SE 35 G 54 16.09 Partly Cloudy and Breezy SCT040 28.3 21.1 65% 31 75.95 1011.5
18 21:53 SE 24 G 37 16.09 A Few Clouds FEW050 FEW250 29.4 21.1 61% 32 75.87 1010.5
18 20:53 SE 24 G 39 16.09 A Few Clouds FEW050 FEW250 30 21.1 59% 33 75.79 1009.4
18 19:53 SE 35 G 48 16.09 A Few Clouds and Breezy FEW050 FEW080 31.1 20.6 54% 34 75.77 1009.1
18 18:53 SE 28 16.09 A Few Clouds FEW050 FEW080 32.2 21.1 33.3 30.6 52% 35 75.74 1008.9
18 17:53 SE 31 G 43 16.09 Partly Cloudy SCT050 SCT080 32.8 21.1 50% 36 75.74 1008.8
18 16:53 S 26 G 41 16.09 Mostly Cloudy SCT050 BKN080 33.3 21.1 49% 37 75.77 1009.1
18 15:53 SE 26 G 46 16.09 Mostly Cloudy SCT050 BKN075 32.8 21.1 50% 36 75.79 1009.5
18 14:53 S 26 16.09 Mostly Cloudy SCT046 BKN070 32.2 21.1 52% 35 75.82 1009.8
18 13:53 SE 26 G 43 16.09 Mostly Cloudy SCT049 BKN075 31.7 21.1 53% 35 75.84 1010.2
18 12:53 S 30 G 44 16.09 Partly Cloudy SCT045 32.2 21.1 32.2 24.4 52% 35 75.87 1010.4
Date Time (cdt) Wind (kph) Vis. (km) Weather Sky Cond. Air Dwpt Max. Min. Relative Humidity Wind Chill (°C) Heat Index (°C) altimeter (cm) sea level (mb) 1 hr 3 hr 6 hr
6 hour
Temperature (ºC) Pressure Precipitation (cm)